Regional Weather Roundup
Issued by NWS

Home | Current Version | Previous Version | Text Only | Print | Product List | Glossary On
Versions: 1 2 3 4 5 6 7 8 9 10 11 12 13 14 15 16 17 18 19 20 21 22 23 24 25 26 27 28 29 30 31 32 33 34 35 36 37 38 39 40 41 42 43 44 45 46 47 48 49 50
000
ASUS43 KDTX 052310
RWRMI
MICHIGAN HOURLY REGIONAL WEATHER ROUNDUP
NATIONAL WEATHER SERVICE DETROIT/PONTIAC MI
600 PM EST THU MAR 05 2015

NOTE: "FAIR" INDICATES FEW OR NO CLOUDS BELOW 12,000 FEET WITH NO
SIGNIFICANT WEATHER AND/OR OBSTRUCTION TO VISIBILITY.

MIZ047>049-052>055-059>063-066>070-074>076-081>083-060000-
SOUTHEAST LOWER MICHIGAN

CITY           SKY/WX    TMP DP  RH WIND       PRES   REMARKS
ADRIAN         PTCLDY    17   0  47 NW5       30.45R
ALMA           CLOUDY    15   1  55 W8        30.43R
ANN ARBOR      PTCLDY    16  -1  47 W13       30.43R
BAD AXE        CLEAR     11  -3  55 SW7       30.40S
DETROIT CITY   CLEAR     18  -2  41 VRB7      30.44R
DETROIT        PTCLDY    18  -1  43 W9        30.45R
FLINT          CLEAR     13  -2  51 W8        30.43R
GROSSE ILE     CLEAR     18  -4  38 NW7       30.43R
HILLSDALE      MOCLDY    17   2  52 W9        30.41R
HOWELL         CLEAR     13  -1  52 NW6       30.41R

CITY           SKY/WX    TMP DP  RH WIND       PRES   REMARKS
JACKSON          N/A     16   0  49 NW7       30.41R
LAMBERTVILLE   PTCLDY    19   1  45 NW3       30.46R
LANSING        CLEAR     15   0  51 W8        30.43R
LAPEER         NOT AVBL
MASON          CLEAR     15   1  52 NW9       30.42R
MONROE         CLEAR     18   1  49 W7        30.43R
MT. CLEMENS    CLEAR     15  -2  46 NW10      30.41R
PONTIAC        PTCLDY    13  -2  51 NW9       30.41R
PORT HOPE        N/A     11  -5  48 VRB3      30.39R
PORT HURON     CLEAR     12  -6  44 NW7       30.44R
TRI CITIES     CLEAR     16   0  49 SW8       30.42R
YPSILANTI      CLEAR     19  -1  41 N9        30.44R
$$
MIZ043>046-050>051-056>058-064>065-071>073-077>080-060000-
SOUTHWEST LOWER MICHIGAN

CITY           SKY/WX    TMP DP  RH WIND       PRES   REMARKS
BATTLE CREEK   CLEAR     18   1  47 N9        30.43R
BENTON HARBOR  CLOUDY    15   6  67 W9        30.49R
BIG RAPIDS     MOCLDY    14   2  59 W8        30.39S
COLDWATER      CLOUDY    18   2  50 W9        30.43R
HOLLAND        MOCLDY    14   3  61 W10       30.48R
GRAND RAPIDS   MOCLDY    14   3  61 W13       30.45R WCI   0
KALAMAZOO        N/A     17   3  54 NW14      30.44R
MARSHALL       PTCLDY    17   1  50 W9        30.42R
MUSKEGON       MOCLDY    13   2  61 W9        30.47S
$$
MIZ016>042-060000-
NORTHERN LOWER MICHIGAN

CITY           SKY/WX    TMP DP  RH WIND       PRES   REMARKS
ALPENA         CLEAR     15  -7  37 W6        30.38R
BEAVER ISLAND  CLEAR      9  -1  63 SW8       30.38F
BELLAIRE       CLOUDY    12   1  61 W5        30.42S
CADILLAC       MOCLDY     9   0  66 W9        30.35R
CHARLEVOIX     CLOUDY     9   2  75 CALM      30.43S
FRANKFORT      CLOUDY    12   4  68 SW6       30.43S
GAYLORD        PTCLDY     8  -3  61 W7        30.32R
GRAYLING       CLOUDY    12   0  58 W8        30.36R
HARBOR SPRINGS PTCLDY     7  -1  69 W3        30.40R
HOUGHTON LAKE  CLOUDY    12   0  58 W7        30.35R
MANISTEE       CLOUDY    12   1  62 SW7       30.44S
OSCODA         CLEAR     14   4  64 NE3       30.36S
PELLSTON       CLEAR      9  -3  58 W8        30.39S
TRAVERSE CITY  MOCLDY    11   1  64 W8        30.41R
$$
MIZ007>008-015-060000-
EASTERN UPPER MICHIGAN

CITY           SKY/WX    TMP DP  RH WIND       PRES   REMARKS
KINROSS        CLOUDY     9   0  66 N3        30.34S
MACKINAC ISLAN CLEAR      7   0  70 SW12G18   30.37S WCI  -8
NEWBERRY       CLEAR     11  -4  51 W7        30.32S
S. S. MARIE    CLEAR      8  -4  58 NW8       30.34S
$$
MIZ004>006-011>014-085-060000-
CENTRAL UPPER MICHIGAN

CITY           SKY/WX    TMP DP  RH WIND       PRES   REMARKS
MANISTIQUE     CLEAR     13  -2  51 SW6       30.34S
ESCANABA       CLEAR     12   1  62 S10       30.36F WCI  -1
MENOMINEE      CLEAR     16  -6  38 W6        30.37S
SAWYER-GWINN   CLEAR     14  -6  41 SW5       30.27S
$$
MIZ001>003-009>011-084-060000-
WESTERN UPPER MICHIGAN

CITY           SKY/WX    TMP DP  RH WIND       PRES   REMARKS
IRON MOUNTAIN  CLEAR     16 -10  31 W8        30.28S
HOUGHTON       CLEAR      9  -6  50 W15       30.26F WCI  -8
COPPER HARBOR    N/A     11  -9  40 VRB6      30.29F
IRONWOOD       CLEAR     14  -9  34 SW12      30.26S
$$

ABBREVIATIONS USED IN REMARKS
   TC - TEMPERATURE IN CELSIUS
  WCI - WIND CHILL INDEX
   HX - HEAT INDEX
  VSB - VISIBILITY



USA.gov is the U.S. government's official web portal to all federal, state and local government web resources and services.